sat.trackr.live / text

‹ back to catalog

STARLINK-33876

NORAD 63639 · 2025-083F

PAYLOAD ACTIVE UNKNOWN

§ Identity

Operator
Country
US
Launch date
2025-04-25
Launch site
AFETR
Launch vehicle
Mass (kg)
RCS (m²)

Purposes: comms

External: N2YO · Heavens-Above · Gunter

§ Orbital elements

Epoch: 2026-05-25T02:34:23.796768Z

Period
94.27 min
Inclination
43.0032°
Eccentricity
0.0001402
Mean motion
15.27587877 rev/d
Perigee alt
482.1 km
Apogee alt
484.0 km
Semi-major
6,861.2 km
B*
5.8188e-4
RAAN
293.6612°
Arg perigee
278.1903°
Mean anomaly
81.8790°
Rev number
6,175

§ Raw data

STARLINK-338761 63639U 25083F   26145.10721987  .00015788  00000+0  58188-3 0  99992 63639  43.0032 293.6612 0001402 278.1903  81.8790 15.27587877 61756

JSON: /api/v1/satellites/63639 · /tle

For live sub-satellite position, see the globe view (requires WebGL).

§ Visibility from observer

Set your observer location to see the next 7 days of passes ≥ 10°. The values pass through the URL so the page stays shareable.

No JS? Fill the form by hand. The geolocation button needs JavaScript.